Regional Weather Roundup
Issued by NWS

Home | Current Version | Previous Version | Text Only | Print | Product List | Glossary Off
Versions: 1 2 3 4 5 6 7 8 9 10 11 12 13 14 15 16 17 18 19 20 21 22 23 24 25 26 27 28 29 30 31 32 33 34 35 36 37 38 39 40 41 42 43 44 45 46 47 48 49 50

720
ASUS43 KOAX 261202
RWRNE

WEATHER ROUNDUP FOR NEBRASKA
NATIONAL WEATHER SERVICE OMAHA NE
700 AM CDT SUN MAR 26 2017

NOTES: SATELLITE DATA IS BEING USED TO AUGMENT CLOUD COVER ABOVE
       12000 FEET.
       "FAIR" INDICATES FEW OR NO CLOUDS BELOW 12,000 FEET WITH NO
       SIGNIFICANT WEATHER AND/OR OBSTRUCTIONS TO VISIBILITY.

  * THESE STATIONS DO NOT REPORT WEATHER SUCH AS RAIN...SNOW OR FOG.

NEZ001>004-019>022-054>056-261300-
NEBRASKA PANHANDLE

CITY           SKY/WX    TMP DP  RH WIND       PRES   REMARKS
SCOTTSBLUFF    CLOUDY    42  30  62 E7        29.79S
6HR MIN TEMP:  41; 6HR MAX TEMP:  48;

ALLIANCE       PTCLDY    37  35  92 SE6       29.79F WCI  32
6HR MIN TEMP:  33; 6HR MAX TEMP:  42;

CHADRON        CLOUDY    45  32  60 NE6       29.81R
6HR MIN TEMP:  45; 6HR MAX TEMP:  54;

KIMBALL        CLOUDY    42  36  78 N3        29.82R
SIDNEY         CLOUDY    41  31  67 SE3       29.81S
6HR MIN TEMP:  38; 6HR MAX TEMP:  43;

$$

NEZ057>060-069>072-079>082-261300-
SOUTHWEST NEBRASKA

CITY           SKY/WX    TMP DP  RH WIND       PRES   REMARKS
NORTH PLATTE   CLOUDY    40  37  89 S6        29.85F
6HR MIN TEMP:  40; 6HR MAX TEMP:  41;

IMPERIAL       FOG       39  39 100 SE3       29.84R VSB 1/2
6HR MIN TEMP:  36; 6HR MAX TEMP:  41;

LEXINGTON      CLOUDY    40  38  92 CALM      29.87R
MCCOOK         CLOUDY    40  40 100 E5        29.86S FOG
6HR MIN TEMP:  40; 6HR MAX TEMP:  41;

OGALLALA       CLOUDY    40  39  97 SE5       29.84S FOG
$$

NEZ005>010-023>029-035>040-094-261300-
NORTH CENTRAL NEBRASKA

CITY           SKY/WX    TMP DP  RH WIND       PRES   REMARKS
VALENTINE      CLOUDY    38  36  92 S6        29.86R FOG     WCI  33
6HR MIN TEMP:  37; 6HR MAX TEMP:  41;

AINSWORTH      CLOUDY    38  38 100 S3        29.87R FOG
BROKEN BOW     CLOUDY    40  40 100 SW6       29.85S FOG
6HR MIN TEMP:  40; 6HR MAX TEMP:  41;

O`NEILL        FOG       39  39 100 N3        29.88S VSB 1/2
ORD            CLOUDY    40  38  93 CALM      29.86R FOG
6HR MIN TEMP:  39; 6HR MAX TEMP:  40;

THEDFORD       CLOUDY    39  38  95 SW6       29.87R WCI  35
$$

NEZ041-046>049-061>064-073>077-083>087-261300-
SOUTH CENTRAL NEBRASKA

CITY           SKY/WX    TMP DP  RH WIND       PRES   REMARKS
GRAND ISLAND   CLOUDY    38  38 100 N3        29.89R FOG
6HR MIN TEMP:  38; 6HR MAX TEMP:  39;

AURORA         CLOUDY    38  38 100 CALM      29.89R FOG
HASTINGS       CLOUDY    39  38  96 CALM      29.89S FOG
6HR MIN TEMP:  38; 6HR MAX TEMP:  39;

HEBRON         CLOUDY    39  38  97 CALM      29.89S FOG
HOLDREGE       CLOUDY    39  38  97 CALM      29.87R FOG
KEARNEY *      CLOUDY    39  36  87 CALM      29.88S
YORK           CLOUDY    37  37 100 CALM      29.89R FOG
$$

NEZ011>018-030>034-042>045-261300-
NORTHEAST NEBRASKA

CITY           SKY/WX    TMP DP  RH WIND       PRES   REMARKS
NORFOLK        CLOUDY    37  36  96 NE3       29.89S
6HR MIN TEMP:  36; 6HR MAX TEMP:  38;

ALBION         CLOUDY    40  38  91 CALM      29.89R FOG
BLAIR          CLOUDY    39  38  97 NW8       29.89R FOG     WCI  34
FREMONT        CLOUDY    39  39 100 NW5       29.91S FOG
TEKAMAH        CLOUDY    39  38  96 NW7       29.91R FOG     WCI  34
6HR MIN TEMP:  39; 6HR MAX TEMP:  40; 6HR PCP: TRACE;

WAYNE          FOG       38  37  99 N3        29.90F VSB 1
$$

NEZ050>053-065>068-078-088>093-261300-
SOUTHEAST NEBRASKA

CITY           SKY/WX    TMP DP  RH WIND       PRES   REMARKS
LINCOLN        CLOUDY    40  39  97 N6        29.91S FOG
6HR MIN TEMP:  40; 6HR MAX TEMP:  41;

OMAHA EPPLEY   CLOUDY    40  37  89 NW8       29.90R WCI  34
6HR MIN TEMP:  40; 6HR MAX TEMP:  41; 6HR PCP: TRACE;

BEATRICE       CLOUDY    40  40  99 NE5       29.89S FOG
FALLS CITY     CLOUDY    42  40  92 NW6       29.90R
6HR MIN TEMP:  42; 6HR MAX TEMP:  42;

NEBRASKA CITY  CLOUDY    40  40 100 N5        29.90R FOG
PLATTSMOUTH    CLOUDY    40  38  92 NW5       29.90R FOG
$$

NEZ044-045-051>053-067-261300-
OMAHA AREA

CITY           SKY/WX    TMP DP  RH WIND       PRES   REMARKS
OMAHA EPPLEY   CLOUDY    40  37  89 NW8       29.90R WCI  34
6HR MIN TEMP:  40; 6HR MAX TEMP:  41; 6HR PCP: TRACE;

BLAIR          CLOUDY    39  38  97 NW8       29.89R FOG     WCI  34
FREMONT        CLOUDY    39  39 100 NW5       29.91S FOG
MILLARD        CLOUDY    42  40  93 CALM      29.90S
OFFUTT AFB     DRIZZLE   40  38  93 N3        29.89S
PLATTSMOUTH    CLOUDY    40  38  92 NW5       29.90R FOG
WAHOO          CLOUDY    39  38  97 NW7       29.90S FOG     WCI  34
$$




USA.gov is the U.S. government's official web portal to all federal, state and local government web resources and services.